Regional Weather Roundup
Issued by NWS

Home | Current Version | Previous Version | Text Only | Print | Product List | Glossary Off
Versions: 1 2 3 4 5 6 7 8 9 10 11 12 13 14 15 16 17 18 19 20 21 22 23 24 25 26 27 28 29 30 31 32 33 34 35 36 37 38 39 40 41 42 43 44 45 46 47 48 49 50

000
ASUS43 KDTX 271010
RWRMI
MICHIGAN HOURLY REGIONAL WEATHER ROUNDUP
NATIONAL WEATHER SERVICE DETROIT/PONTIAC MI
ISSUED BY NATIONAL WEATHER SERVICE GRAND RAPIDS MI
600 AM EDT SAT MAY 27 2017

NOTE: "FAIR" INDICATES FEW OR NO CLOUDS BELOW 12,000 FEET WITH NO
SIGNIFICANT WEATHER AND/OR OBSTRUCTION TO VISIBILITY.

MIZ047>049-052>055-059>063-066>070-074>076-081>083-271100-
SOUTHEAST LOWER MICHIGAN

CITY           SKY/WX    TMP DP  RH WIND       PRES   REMARKS
ADRIAN         CLOUDY    59  58  96 SE3       29.86F FOG
ALMA           FOG       50  50 100 CALM      29.88F VSB 1/4
ANN ARBOR      CLOUDY    58  57  97 VRB5      29.87R
BAD AXE        FOG       49  49 100 CALM      29.90S VSB 1
DETROIT CITY   PTCLDY    55  55 100 CALM      29.88S
DETROIT        CLOUDY    59  56  89 NE3       29.88R
FLINT          CLOUDY    50  50 100 E3        29.88S
GROSSE ILE     CLOUDY    57  56  94 CALM      29.87R
HILLSDALE      LGT RAIN  59  55  88 CALM      29.87R
HOWELL         CLEAR     54  51  92 CALM      29.88S

CITY           SKY/WX    TMP DP  RH WIND       PRES   REMARKS
JACKSON        CLOUDY    59  56  89 NE5       29.88R
LANSING        PTCLDY    55  52  89 CALM      29.88F
MASON          CLOUDY    58  56  94 CALM      29.88S
MONROE         CLOUDY    59  59  97 CALM      29.86R FOG
MT. CLEMENS    PTCLDY    54  54 100 CALM      29.87S FOG
PONTIAC        CLOUDY    55  52  89 CALM      29.87S FOG
PORT HOPE        N/A     49  48  97 CALM      29.89R
PORT HURON     MOCLDY    48  48 100 CALM      29.90R FOG
TRI CITIES     CLEAR     53  53 100 CALM      29.89S FOG
YPSILANTI      CLOUDY    59  57  93 NE7       29.88R
$$
MIZ043>046-050>051-056>058-064>065-071>073-077>080-271100-
SOUTHWEST LOWER MICHIGAN

CITY           SKY/WX    TMP DP  RH WIND       PRES   REMARKS
BATTLE CREEK   MOCLDY    58  57  97 NE3       29.87F
BENTON HARBOR  FOG       53  51  93 CALM      29.86S VSB 1/4
BIG RAPIDS     PTCLDY    49  47  93 CALM      29.89S
COLDWATER      CLOUDY    60  60 100 NE5       29.86S
HOLLAND        CLEAR     52  50  93 CALM      29.87S FOG
GRAND RAPIDS   PTCLDY    57  57 100 CALM      29.87S
KALAMAZOO      CLOUDY    59  56  89 CALM      29.87R
MARSHALL       CLOUDY    59  58  98 CALM      29.86F
MOUNT PLEASANT FOG       51  50  96 CALM      29.87F VSB 1/2
MUSKEGON       PTCLDY    53  51  93 N3        29.89R
STURGIS        DRIZZLE   58  57  99 NE8       29.86R
$$
MIZ016>042-271100-
NORTHERN LOWER MICHIGAN

CITY           SKY/WX    TMP DP  RH WIND       PRES   REMARKS
ALPENA         CLEAR     48  46  93 CALM      29.89F
BEAVER ISLAND  FOG       46  46  97 CALM      29.89R VSB 3/4
BELLAIRE       CLOUDY    49  48  95 CALM      29.89S FOG
CADILLAC       CLEAR     48  47  97 CALM      29.88S
CHARLEVOIX     PTCLDY    50  50 100 CALM      29.91S
GAYLORD        CLOUDY    52  47  83 CALM      29.89R
HOUGHTON LAKE  CLOUDY    51  50  96 CALM      29.89S
MANISTEE       FOG       45  45 100 CALM      29.89S VSB 1/2
OSCODA         FOG       46  45  96 CALM      29.89S VSB 1/4
PELLSTON       CLOUDY    49  46  90 CALM      29.89R FOG
TRAVERSE CITY  CLOUDY    52  49  89 CALM      29.88R
LUDINGTON      FOG       46  46 100 CALM      29.88S VSB 1
$$
MIZ007>008-015-271100-
EASTERN UPPER MICHIGAN

CITY           SKY/WX    TMP DP  RH WIND       PRES   REMARKS
KINROSS        CLOUDY    53  51  93 NW5       29.88S
MACKINAC ISLAN CLOUDY    52  52 100 CALM      29.88S
NEWBERRY       CLOUDY    51  51  97 S5        29.87S
S. S. MARIE    CLOUDY    54  51  90 CALM      29.87S
$$
MIZ004>006-011>014-085-271100-
CENTRAL UPPER MICHIGAN

CITY           SKY/WX    TMP DP  RH WIND       PRES   REMARKS
MANISTIQUE     PTCLDY    46  43  87 CALM      29.87S
ESCANABA       CLOUDY    52  50  93 CALM      29.86S
MENOMINEE      FOG       51  51 100 CALM      29.87S VSB 1/2
SAWYER-GWINN   PTCLDY    53  51  94 S5        29.86S
$$
MIZ001>003-009>011-084-271100-
WESTERN UPPER MICHIGAN

CITY           SKY/WX    TMP DP  RH WIND       PRES   REMARKS
IRON MOUNTAIN  PTCLDY    53  50  89 CALM      29.84S
HOUGHTON       CLEAR     55  52  89 SW3       29.79S
COPPER HARBOR    N/A     57  53  86 SW8       29.78R
IRONWOOD       PTCLDY    57  55  93 SW7       29.82S
$$

ABBREVIATIONS USED IN REMARKS
   TC - TEMPERATURE IN CELSIUS
  WCI - WIND CHILL INDEX
   HX - HEAT INDEX
  VSB - VISIBILITY




USA.gov is the U.S. government's official web portal to all federal, state and local government web resources and services.